Time,TemperatureF,DewpointF,PressureIn,WindDirection,WindDirectionDegrees,WindSpeedMPH,WindSpeedGustMPH,Humidity,HourlyPrecipIn,Conditions,Clouds,dailyrainin,SoftwareType,DateUTC
2013-02-20 00:00:00,22.8,5.6,30.11,North,1,0.0,0.0,47,0.00,CL,CL,0.00,WeatherDisplay:10.37,2013-02-20 05:00:00,
2013-02-20 00:03:00,19.2,-12.6,30.14,WNW,299,2.0,3.0,23,0.00,CLR,CLR,0.00,WeatherDisplay:10.37,2013-02-20 05:03:00,
2013-02-20 00:18:00,19.4,-12.4,30.17,West,266,3.0,4.0,23,0.00,CLR,CLR,0.00,WeatherDisplay:10.37,2013-02-20 05:18:00,
2013-02-20 00:33:00,19.2,-12.6,30.14,West,260,2.0,4.0,23,0.00,CLR,CLR,0.00,WeatherDisplay:10.37,2013-02-20 05:33:00,
2013-02-20 00:48:00,18.9,-12.9,30.14,West,264,2.0,3.0,23,0.00,CLR,CLR,0.00,WeatherDisplay:10.37,2013-02-20 05:48:00,
2013-02-20 01:00:00,22.1,4.0,30.11,North,1,0.0,0.0,45,0.00,CL,CL,0.00,WeatherDisplay:10.37,2013-02-20 06:00:00,
2013-02-20 01:03:00,18.5,-13.2,30.14,West,278,1.0,3.0,23,0.00,CLR,CLR,0.00,WeatherDisplay:10.37,2013-02-20 06:03:00,
2013-02-20 01:18:00,18.5,-13.2,30.14,West,270,0.0,3.0,23,0.00,CLR,CLR,0.00,WeatherDisplay:10.37,2013-02-20 06:18:00,
2013-02-20 01:33:00,17.4,-14.1,30.11,West,270,0.0,1.0,23,0.00,CLR,CLR,0.00,WeatherDisplay:10.37,2013-02-20 06:33:00,
2013-02-20 01:48:00,16.7,-14.8,30.11,WSW,255,0.0,2.0,23,0.00,CLR,CLR,0.00,WeatherDisplay:10.37,2013-02-20 06:48:00,
2013-02-20 02:00:00,21.7,4.1,30.14,North,2,0.0,0.0,46,0.00,CL,CL,0.00,WeatherDisplay:10.37,2013-02-20 07:00:00,
2013-02-20 02:03:00,16.9,-14.6,30.14,West,270,0.0,1.0,23,0.00,CLR,CLR,0.00,WeatherDisplay:10.37,2013-02-20 07:03:00,
2013-02-20 02:18:00,16.9,-14.6,30.14,West,270,1.0,2.0,23,0.00,CLR,CLR,0.00,WeatherDisplay:10.37,2013-02-20 07:18:00,
2013-02-20 02:33:00,16.7,-14.8,30.14,West,270,0.0,2.0,23,0.00,CLR,CLR,0.00,WeatherDisplay:10.37,2013-02-20 07:33:00,
2013-02-20 02:48:00,16.7,-14.8,30.14,West,270,0.0,2.0,23,0.00,CLR,CLR,0.00,WeatherDisplay:10.37,2013-02-20 07:48:00,
2013-02-20 03:00:00,22.6,21.4,30.20,North,0,0.0,1.0,95,0.00,CL,CL,0.00,WeatherDisplay:10.37,2013-02-20 08:00:00,
2013-02-20 04:00:00,27.9,26.4,30.20,North,2,2.0,5.0,94,0.00,CL,CL,0.00,WeatherDisplay:10.37,2013-02-20 09:00:00,
2013-02-20 05:00:00,32.2,25.8,30.20,North,4,5.0,5.0,77,0.00,CL,CL,0.00,WeatherDisplay:10.37,2013-02-20 10:00:00,
2013-02-20 06:00:00,38.7,28.7,30.20,North,4,3.0,7.0,67,0.00,CL,CL,0.00,WeatherDisplay:10.37,2013-02-20 11:00:00,
2013-02-20 07:00:00,44.6,34.0,30.17,North,5,5.0,6.0,66,0.00,CL,CL,0.00,WeatherDisplay:10.37,2013-02-20 12:00:00,
2013-02-20 07:54:00,16.9,-12.2,30.14,West,270,10.9,0.0,26,0.00,CLR,,0.00,WeatherDisplay:10.37,2013-02-20 12:54:00,
2013-02-20 07:55:00,16.9,-12.2,30.14,West,270,3.5,0.0,26,0.00,CLR,,0.00,WeatherDisplay:10.37,2013-02-20 12:55:00,
2013-02-20 07:56:00,17.1,3.6,30.14,West,270,0.0,0.0,55,0.00,CLR,,0.00,WeatherDisplay:10.37,2013-02-20 12:56:00,
2013-02-20 08:00:00,50.2,38.9,30.14,North,6,5.0,7.0,65,0.00,CL,CL,0.00,WeatherDisplay:10.37,2013-02-20 13:00:00,
2013-02-20 08:01:00,17.2,3.8,30.14,NW,315,0.0,0.0,55,0.00,CLR,,0.00,WeatherDisplay:10.37,2013-02-20 13:01:00,
2013-02-20 08:06:00,17.6,4.2,30.17,West,270,2.3,2.3,55,0.00,CLR,,0.00,WeatherDisplay:10.37,2013-02-20 13:06:00,
2013-02-20 08:11:00,18.5,5.0,30.17,West,270,2.3,2.3,55,0.00,CLR,,0.00,WeatherDisplay:10.37,2013-02-20 13:11:00,
2013-02-20 08:16:00,18.5,5.0,30.17,West,270,3.3,3.3,55,0.00,CLR,,0.00,WeatherDisplay:10.37,2013-02-20 13:16:00,
2013-02-20 08:21:00,19.2,5.7,30.17,WSW,248,1.6,1.6,55,0.00,CLR,,0.00,WeatherDisplay:10.37,2013-02-20 13:21:00,
2013-02-20 08:26:00,19.6,5.2,30.17,WSW,248,3.5,3.5,53,0.00,CLR,,0.00,WeatherDisplay:10.37,2013-02-20 13:26:00,
2013-02-20 08:31:00,20.1,5.7,30.17,West,270,5.8,5.8,53,0.00,CLR,,0.00,WeatherDisplay:10.37,2013-02-20 13:31:00,
2013-02-20 08:36:00,20.3,5.9,30.20,West,270,2.3,2.9,53,0.00,CLR,,0.00,WeatherDisplay:10.37,2013-02-20 13:36:00,
2013-02-20 08:41:00,20.7,6.2,30.20,West,270,4.6,4.6,53,0.00,CLR,,0.00,WeatherDisplay:10.37,2013-02-20 13:41:00,
2013-02-20 08:46:00,20.8,6.4,30.20,West,270,2.3,2.3,53,0.00,CLR,,0.00,WeatherDisplay:10.37,2013-02-20 13:46:00,
2013-02-20 08:51:00,21.2,6.7,30.20,WNW,292,2.3,2.3,53,0.00,CLR,,0.00,WeatherDisplay:10.37,2013-02-20 13:51:00,
2013-02-20 08:56:00,21.4,6.9,30.20,West,270,6.9,6.9,53,0.00,CLR,,0.00,WeatherDisplay:10.37,2013-02-20 13:56:00,
2013-02-20 09:00:00,53.8,41.9,30.17,North,4,3.0,5.0,64,0.00,CL,CL,0.00,WeatherDisplay:10.37,2013-02-20 14:00:00,
2013-02-20 09:01:00,21.6,7.0,30.20,West,270,4.6,4.6,53,0.00,CLR,,0.00,WeatherDisplay:10.37,2013-02-20 14:01:00,
2013-02-20 09:06:00,21.9,7.4,30.14,West,270,3.5,3.5,53,0.00,CLR,,0.00,WeatherDisplay:10.37,2013-02-20 14:06:00,
2013-02-20 09:11:00,21.9,7.4,30.14,West,270,5.8,5.8,53,0.00,CLR,,0.00,WeatherDisplay:10.37,2013-02-20 14:11:00,
2013-02-20 09:16:00,22.5,7.9,30.14,NW,315,3.3,3.3,53,0.00,CLR,,0.00,WeatherDisplay:10.37,2013-02-20 14:16:00,
2013-02-20 09:21:00,22.5,7.9,30.17,NNW,338,3.5,3.5,53,0.00,CLR,,0.00,WeatherDisplay:10.37,2013-02-20 14:21:00,
2013-02-20 09:26:00,22.6,8.1,30.17,NW,315,6.9,6.9,53,0.00,CLR,,0.00,WeatherDisplay:10.37,2013-02-20 14:26:00,
2013-02-20 09:31:00,22.8,8.2,30.17,West,270,6.0,6.0,53,0.00,CLR,,0.00,WeatherDisplay:10.37,2013-02-20 14:31:00,
2013-02-20 09:36:00,23.0,8.4,30.20,NW,315,5.8,5.8,53,0.00,CLR,,0.00,WeatherDisplay:10.37,2013-02-20 14:36:00,
2013-02-20 09:41:00,23.5,8.9,30.20,West,270,5.8,5.8,53,0.00,CLR,,0.00,WeatherDisplay:10.37,2013-02-20 14:41:00,
2013-02-20 09:46:00,23.7,9.1,30.20,NW,315,4.6,4.6,53,0.00,CLR,,0.00,WeatherDisplay:10.37,2013-02-20 14:46:00,
2013-02-20 09:51:00,23.9,9.2,30.20,West,270,5.9,5.9,53,0.00,CLR,,0.00,WeatherDisplay:10.37,2013-02-20 14:51:00,
2013-02-20 09:56:00,23.7,9.1,30.20,West,270,9.2,9.2,53,0.00,CLR,,0.00,WeatherDisplay:10.37,2013-02-20 14:56:00,
2013-02-20 10:00:00,54.8,42.9,30.14,North,8,5.0,5.0,64,0.00,CL,CL,0.00,WeatherDisplay:10.37,2013-02-20 15:00:00,
2013-02-20 10:01:00,24.6,9.9,30.20,West,270,3.5,3.5,53,0.00,CLR,,0.00,WeatherDisplay:10.37,2013-02-20 15:01:00,
2013-02-20 10:06:00,24.8,10.1,30.20,NNW,338,4.6,4.6,53,0.00,CLR,,0.00,WeatherDisplay:10.37,2013-02-20 15:06:00,
2013-02-20 10:11:00,25.5,9.9,30.20,West,270,4.6,4.6,51,0.00,CLR,,0.00,WeatherDisplay:10.37,2013-02-20 15:11:00,
2013-02-20 10:16:00,25.7,10.0,30.20,West,270,5.8,5.8,51,0.00,CLR,,0.00,WeatherDisplay:10.37,2013-02-20 15:16:00,
2013-02-20 10:21:00,26.1,10.4,30.17,NNW,338,6.9,6.9,51,0.00,CLR,,0.00,WeatherDisplay:10.37,2013-02-20 15:21:00,
2013-02-20 10:26:00,27.0,11.2,30.17,NE,45,6.2,6.2,51,0.00,CLR,,0.00,WeatherDisplay:10.37,2013-02-20 15:26:00,
2013-02-20 10:31:00,27.3,11.5,30.17,West,270,5.8,5.8,51,0.00,CLR,,0.00,WeatherDisplay:10.37,2013-02-20 15:31:00,
2013-02-20 10:36:00,27.5,11.7,30.20,North,0,5.8,5.8,51,0.00,CLR,,0.00,WeatherDisplay:10.37,2013-02-20 15:36:00,
2013-02-20 10:41:00,27.3,11.5,30.20,West,270,6.9,6.9,51,0.00,CLR,,0.00,WeatherDisplay:10.37,2013-02-20 15:41:00,
2013-02-20 10:46:00,28.0,12.2,30.20,West,270,6.9,6.9,51,0.00,CLR,,0.00,WeatherDisplay:10.37,2013-02-20 15:46:00,
2013-02-20 10:51:00,28.4,12.6,30.20,North,0,5.8,5.8,51,0.00,CLR,,0.00,WeatherDisplay:10.37,2013-02-20 15:51:00,
2013-02-20 10:56:00,28.6,12.3,30.20,WNW,292,3.5,3.5,50,0.00,CLR,,0.00,WeatherDisplay:10.37,2013-02-20 15:56:00,
2013-02-20 11:00:00,54.3,42.4,30.11,North,6,3.0,3.0,64,0.00,CL,CL,0.00,WeatherDisplay:10.37,2013-02-20 16:00:00,
2013-02-20 11:01:00,29.3,12.9,30.20,North,0,6.9,6.9,50,0.00,CLR,,0.00,WeatherDisplay:10.37,2013-02-20 16:01:00,
2013-02-20 11:06:00,30.0,13.6,30.20,WNW,292,4.6,4.6,50,0.00,CLR,,0.00,WeatherDisplay:10.37,2013-02-20 16:06:00,
2013-02-20 11:11:00,30.2,13.8,30.20,NW,315,6.9,6.9,50,0.00,CLR,,0.00,WeatherDisplay:10.37,2013-02-20 16:11:00,
2013-02-20 11:16:00,28.9,12.6,30.20,West,270,6.9,6.9,50,0.00,CLR,,0.00,WeatherDisplay:10.37,2013-02-20 16:16:00,
2013-02-20 11:21:00,28.6,12.3,30.20,West,270,11.5,11.5,50,0.00,CLR,,0.00,WeatherDisplay:10.37,2013-02-20 16:21:00,
2013-02-20 11:26:00,30.4,13.9,30.20,West,270,3.5,3.5,50,0.00,CLR,,0.00,WeatherDisplay:10.37,2013-02-20 16:26:00,
2013-02-20 11:31:00,30.9,14.4,30.20,NW,315,3.5,3.5,50,0.00,CLR,,0.00,WeatherDisplay:10.37,2013-02-20 16:31:00,
2013-02-20 11:36:00,31.8,15.3,30.20,West,270,8.1,8.1,50,0.00,CLR,,0.00,WeatherDisplay:10.37,2013-02-20 16:36:00,
2013-02-20 11:41:00,29.8,13.4,30.20,SW,225,5.9,5.9,50,0.00,CLR,,0.00,WeatherDisplay:10.37,2013-02-20 16:41:00,
2013-02-20 11:46:00,31.1,14.6,30.20,West,270,4.0,4.0,50,0.00,CLR,,0.00,WeatherDisplay:10.37,2013-02-20 16:46:00,
2013-02-20 11:51:00,32.2,15.6,30.23,West,270,8.1,8.1,50,0.00,CLR,,0.00,WeatherDisplay:10.37,2013-02-20 16:51:00,
2013-02-20 11:56:00,28.9,12.6,30.23,West,270,6.9,6.9,50,0.00,CLR,,0.00,WeatherDisplay:10.37,2013-02-20 16:56:00,
2013-02-20 12:00:00,54.3,42.4,30.08,North,6,3.0,3.0,64,0.00,CL,CL,0.00,WeatherDisplay:10.37,2013-02-20 17:00:00,
2013-02-20 12:01:00,32.2,15.6,30.23,North,0,5.8,5.8,50,0.00,CLR,,0.00,WeatherDisplay:10.37,2013-02-20 17:01:00,
2013-02-20 12:06:00,31.8,15.3,30.17,WNW,292,5.8,5.8,50,0.00,CLR,,0.00,WeatherDisplay:10.37,2013-02-20 17:06:00,
2013-02-20 12:11:00,32.5,15.9,30.17,NW,315,9.2,9.2,50,0.00,CLR,,0.00,WeatherDisplay:10.37,2013-02-20 17:11:00,
2013-02-20 12:16:00,33.1,16.4,30.17,East,90,3.5,3.5,50,0.00,CLR,,0.00,WeatherDisplay:10.37,2013-02-20 17:16:00,
2013-02-20 12:21:00,32.5,15.9,30.20,West,270,4.6,4.6,50,0.00,CLR,,0.00,WeatherDisplay:10.37,2013-02-20 17:21:00,
2013-02-20 12:26:00,32.5,15.9,30.20,NW,315,5.8,5.8,50,0.00,CLR,,0.00,WeatherDisplay:10.37,2013-02-20 17:26:00,
2013-02-20 12:31:00,31.8,15.3,30.20,WNW,292,10.4,10.4,50,0.00,CLR,,0.00,WeatherDisplay:10.37,2013-02-20 17:31:00,
2013-02-20 12:36:00,33.1,16.4,30.20,SW,225,8.1,8.1,50,0.00,CLR,,0.00,WeatherDisplay:10.37,2013-02-20 17:36:00,
2013-02-20 12:41:00,33.6,16.9,30.20,NW,315,6.9,6.9,50,0.00,CLR,,0.00,WeatherDisplay:10.37,2013-02-20 17:41:00,
2013-02-20 12:46:00,31.6,17.3,30.20,West,270,6.9,6.9,55,0.00,CLR,,0.00,WeatherDisplay:10.37,2013-02-20 17:46:00,
2013-02-20 12:51:00,32.9,16.3,30.20,WSW,248,6.7,6.7,50,0.00,CLR,,0.00,WeatherDisplay:10.37,2013-02-20 17:51:00,
2013-02-20 12:56:00,33.1,18.7,30.20,NNE,22,6.9,6.9,55,0.00,CLR,,0.00,WeatherDisplay:10.37,2013-02-20 17:56:00,
2013-02-20 13:00:00,49.4,38.1,30.02,North,6,2.0,3.0,65,0.00,CL,CL,0.00,WeatherDisplay:10.37,2013-02-20 18:00:00,
2013-02-20 13:01:00,33.6,19.2,30.20,WNW,292,5.8,5.8,55,0.00,CLR,,0.00,WeatherDisplay:10.37,2013-02-20 18:01:00,
2013-02-20 13:06:00,33.1,18.7,30.20,West,270,5.8,5.8,55,0.00,CLR,,0.00,WeatherDisplay:10.37,2013-02-20 18:06:00,
2013-02-20 13:11:00,32.7,18.3,30.20,West,270,6.9,6.9,55,0.00,CLR,,0.00,WeatherDisplay:10.37,2013-02-20 18:11:00,
2013-02-20 13:16:00,34.2,18.8,30.20,West,270,5.8,5.8,53,0.00,CLR,,0.00,WeatherDisplay:10.37,2013-02-20 18:16:00,
2013-02-20 13:21:00,34.5,19.1,30.20,NW,315,5.8,5.8,53,0.00,CLR,,0.00,WeatherDisplay:10.37,2013-02-20 18:21:00,
2013-02-20 13:26:00,33.8,18.5,30.20,NE,45,5.4,5.4,53,0.00,CLR,,0.00,WeatherDisplay:10.37,2013-02-20 18:26:00,
2013-02-20 13:31:00,33.6,19.2,30.20,WNW,292,2.3,2.3,55,0.00,CLR,,0.00,WeatherDisplay:10.37,2013-02-20 18:31:00,
2013-02-20 13:36:00,34.0,18.6,30.20,West,270,5.8,5.8,53,0.00,CLR,,0.00,WeatherDisplay:10.37,2013-02-20 18:36:00,
2013-02-20 13:41:00,31.6,17.3,30.20,NW,315,10.4,10.4,55,0.00,CLR,,0.00,WeatherDisplay:10.37,2013-02-20 18:41:00,
2013-02-20 13:46:00,32.7,18.3,30.20,NNE,22,6.9,6.9,55,0.00,CLR,,0.00,WeatherDisplay:10.37,2013-02-20 18:46:00,
2013-02-20 13:51:00,32.5,18.1,30.17,NE,45,5.8,5.8,55,0.00,CLR,,0.00,WeatherDisplay:10.37,2013-02-20 18:51:00,
2013-02-20 13:56:00,33.3,18.8,30.17,NW,315,5.8,5.8,55,0.00,CLR,,0.00,WeatherDisplay:10.37,2013-02-20 18:56:00,
2013-02-20 14:00:00,42.9,32.3,30.02,North,4,1.0,1.0,66,0.00,CL,CL,0.00,WeatherDisplay:10.37,2013-02-20 19:00:00,
2013-02-20 14:01:00,34.3,19.0,30.17,NE,45,2.6,2.6,53,0.00,CLR,,0.00,WeatherDisplay:10.37,2013-02-20 19:01:00,
2013-02-20 14:06:00,34.3,19.0,30.17,North,0,6.2,6.2,53,0.00,CLR,,0.00,WeatherDisplay:10.37,2013-02-20 19:06:00,
2013-02-20 14:11:00,34.3,19.0,30.17,WNW,292,5.8,5.8,53,0.00,CLR,,0.00,WeatherDisplay:10.37,2013-02-20 19:11:00,
2013-02-20 14:16:00,33.3,18.8,30.17,WNW,292,6.4,6.4,55,0.00,CLR,,0.00,WeatherDisplay:10.37,2013-02-20 19:16:00,
2013-02-20 14:21:00,33.6,19.2,30.17,West,270,5.9,5.9,55,0.00,CLR,,0.00,WeatherDisplay:10.37,2013-02-20 19:21:00,
2013-02-20 14:26:00,33.6,19.2,30.17,NW,315,6.9,6.9,55,0.00,CLR,,0.00,WeatherDisplay:10.37,2013-02-20 19:26:00,
2013-02-20 14:31:00,34.3,19.0,30.17,NW,315,3.5,3.5,53,0.00,CLR,,0.00,WeatherDisplay:10.37,2013-02-20 19:31:00,
2013-02-20 14:36:00,34.3,19.0,30.17,West,270,4.6,4.6,53,0.00,CLR,,0.00,WeatherDisplay:10.37,2013-02-20 19:36:00,
2013-02-20 14:41:00,32.5,18.1,30.17,WSW,248,7.6,7.6,55,0.00,CLR,,0.00,WeatherDisplay:10.37,2013-02-20 19:41:00,
2013-02-20 14:46:00,34.3,19.0,30.17,WNW,292,3.5,3.5,53,0.00,CLR,,0.00,WeatherDisplay:10.37,2013-02-20 19:46:00,
2013-02-20 14:51:00,33.6,19.2,30.20,West,270,8.1,8.1,55,0.00,CLR,,0.00,WeatherDisplay:10.37,2013-02-20 19:51:00,
2013-02-20 14:56:00,35.1,19.6,30.20,NNW,338,4.6,4.6,53,0.00,CLR,,0.00,WeatherDisplay:10.37,2013-02-20 19:56:00,
2013-02-20 15:00:00,39.4,29.3,30.02,North,4,2.0,3.0,67,0.00,CL,CL,0.00,WeatherDisplay:10.37,2013-02-20 20:00:00,
2013-02-20 15:01:00,34.0,18.6,30.20,West,270,6.9,6.9,53,0.00,CLR,,0.00,WeatherDisplay:10.37,2013-02-20 20:01:00,
2013-02-20 15:06:00,34.2,18.8,30.20,WNW,292,7.6,7.6,53,0.00,CLR,,0.00,WeatherDisplay:10.37,2013-02-20 20:06:00,
2013-02-20 15:11:00,34.2,18.8,30.20,West,270,4.6,4.6,53,0.00,CLR,,0.00,WeatherDisplay:10.37,2013-02-20 20:11:00,
2013-02-20 15:16:00,33.8,18.5,30.20,WNW,292,5.8,5.8,53,0.00,CLR,,0.00,WeatherDisplay:10.37,2013-02-20 20:16:00,
2013-02-20 15:21:00,34.5,19.1,30.17,West,270,3.5,3.5,53,0.00,CLR,,0.00,WeatherDisplay:10.37,2013-02-20 20:21:00,
2013-02-20 15:26:00,33.8,18.5,30.17,West,270,5.8,5.8,53,0.00,CLR,,0.00,WeatherDisplay:10.37,2013-02-20 20:26:00,
2013-02-20 15:31:00,33.8,18.5,30.17,West,270,4.6,4.6,53,0.00,CLR,,0.00,WeatherDisplay:10.37,2013-02-20 20:31:00,
2013-02-20 15:36:00,33.6,19.2,30.17,NW,315,5.8,5.8,55,0.00,CLR,,0.00,WeatherDisplay:10.37,2013-02-20 20:36:00,
2013-02-20 15:41:00,33.6,19.2,30.17,NNE,22,4.6,4.6,55,0.00,CLR,,0.00,WeatherDisplay:10.37,2013-02-20 20:41:00,
2013-02-20 15:46:00,33.8,18.5,30.17,West,270,3.5,3.5,53,0.00,CLR,,0.00,WeatherDisplay:10.37,2013-02-20 20:46:00,
2013-02-20 15:51:00,33.6,19.2,30.17,NNE,22,3.5,3.5,55,0.00,CLR,,0.00,WeatherDisplay:10.37,2013-02-20 20:51:00,
2013-02-20 15:56:00,33.6,19.2,30.17,West,270,3.5,3.5,55,0.00,CLR,,0.00,WeatherDisplay:10.37,2013-02-20 20:56:00,
2013-02-20 16:00:00,39.4,29.3,30.02,North,4,3.0,5.0,67,0.00,CL,CL,0.00,WeatherDisplay:10.37,2013-02-20 21:00:00,
2013-02-20 16:01:00,32.2,17.8,30.17,West,270,5.8,5.8,55,0.00,CLR,,0.00,WeatherDisplay:10.37,2013-02-20 21:01:00,
2013-02-20 16:06:00,33.3,18.8,30.17,West,270,4.0,4.0,55,0.00,CLR,,0.00,WeatherDisplay:10.37,2013-02-20 21:06:00,
2013-02-20 16:11:00,31.6,17.3,30.17,West,270,8.5,8.5,55,0.00,CLR,,0.00,WeatherDisplay:10.37,2013-02-20 21:11:00,
2013-02-20 16:16:00,32.2,17.8,30.17,WNW,292,6.9,6.9,55,0.00,CLR,,0.00,WeatherDisplay:10.37,2013-02-20 21:16:00,
2013-02-20 16:21:00,31.8,17.5,30.17,West,270,8.1,8.1,55,0.00,CLR,,0.00,WeatherDisplay:10.37,2013-02-20 21:21:00,
2013-02-20 16:26:00,31.3,17.0,30.17,West,270,5.8,5.8,55,0.00,CLR,,0.00,WeatherDisplay:10.37,2013-02-20 21:26:00,
2013-02-20 16:31:00,32.5,18.1,30.17,North,0,5.8,5.8,55,0.00,CLR,,0.00,WeatherDisplay:10.37,2013-02-20 21:31:00,
2013-02-20 16:36:00,32.2,17.8,30.20,West,270,4.6,4.6,55,0.00,OVC,,0.00,WeatherDisplay:10.37,2013-02-20 21:36:00,
2013-02-20 16:41:00,32.5,18.1,30.20,NE,45,4.6,4.6,55,0.00,OVC,,0.00,WeatherDisplay:10.37,2013-02-20 21:41:00,
2013-02-20 16:46:00,32.2,17.8,30.20,West,270,3.5,3.8,55,0.00,OVC,,0.00,WeatherDisplay:10.37,2013-02-20 21:46:00,
2013-02-20 16:51:00,32.4,18.0,30.17,WNW,292,4.6,4.6,55,0.00,OVC,,0.00,WeatherDisplay:10.37,2013-02-20 21:51:00,
2013-02-20 16:56:00,32.4,18.0,30.17,NNE,22,4.6,4.6,55,0.00,OVC,,0.00,WeatherDisplay:10.37,2013-02-20 21:56:00,
2013-02-20 17:00:00,37.6,27.6,29.99,North,4,3.0,3.0,67,0.00,CL,CL,0.00,WeatherDisplay:10.37,2013-02-20 22:00:00,
2013-02-20 17:01:00,32.2,17.8,30.17,NW,315,3.5,3.5,55,0.00,OVC,,0.00,WeatherDisplay:10.37,2013-02-20 22:01:00,
2013-02-20 17:06:00,32.2,17.8,30.14,NNE,22,4.6,4.6,55,0.00,OVC,,0.00,WeatherDisplay:10.37,2013-02-20 22:06:00,
2013-02-20 17:11:00,32.0,17.6,30.14,North,0,4.6,4.6,55,0.00,OVC,,0.00,WeatherDisplay:10.37,2013-02-20 22:11:00,
2013-02-20 17:16:00,32.0,17.6,30.14,NE,45,2.3,2.3,55,0.00,OVC,,0.00,WeatherDisplay:10.37,2013-02-20 22:16:00,
2013-02-20 17:21:00,31.5,17.1,30.14,NW,315,2.3,2.3,55,0.00,OVC,,0.00,WeatherDisplay:10.37,2013-02-20 22:21:00,
2013-02-20 17:26:00,31.3,14.8,30.14,NW,315,2.4,2.4,50,0.00,OVC,,0.00,WeatherDisplay:10.37,2013-02-20 22:26:00,
2013-02-20 17:31:00,31.1,16.8,30.14,NNE,22,3.5,3.5,55,0.00,OVC,,0.00,WeatherDisplay:10.37,2013-02-20 22:31:00,
2013-02-20 17:36:00,30.9,14.4,30.14,West,270,2.6,2.6,50,0.00,OVC,,0.00,WeatherDisplay:10.37,2013-02-20 22:36:00,
2013-02-20 17:41:00,30.9,14.4,30.14,NW,315,3.1,3.1,50,0.00,OVC,,0.00,WeatherDisplay:10.37,2013-02-20 22:41:00,
2013-02-20 17:47:00,30.7,14.3,30.14,North,0,1.4,1.4,50,0.00,OVC,,0.00,WeatherDisplay:10.37,2013-02-20 22:47:00,
2013-02-20 17:52:00,30.4,13.9,30.17,WNW,292,2.3,2.3,50,0.00,OVC,,0.00,WeatherDisplay:10.37,2013-02-20 22:52:00,
2013-02-20 17:57:00,30.2,13.8,30.17,West,270,3.5,3.5,50,0.00,OVC,,0.00,WeatherDisplay:10.37,2013-02-20 22:57:00,
2013-02-20 18:00:00,35.6,26.1,29.96,North,4,1.0,2.0,68,0.00,CL,CL,0.00,WeatherDisplay:10.37,2013-02-20 23:00:00,
2013-02-20 18:02:00,30.0,13.6,30.17,West,270,3.5,3.5,50,0.00,OVC,,0.00,WeatherDisplay:10.37,2013-02-20 23:02:00,
2013-02-20 18:07:00,29.8,13.4,30.17,WNW,292,2.3,2.3,50,0.00,OVC,,0.00,WeatherDisplay:10.37,2013-02-20 23:07:00,
2013-02-20 18:12:00,29.7,13.3,30.17,NW,315,2.3,2.3,50,0.00,OVC,,0.00,WeatherDisplay:10.37,2013-02-20 23:12:00,
2013-02-20 18:17:00,29.5,13.1,30.17,West,270,3.5,3.5,50,0.00,OVC,,0.00,WeatherDisplay:10.37,2013-02-20 23:17:00,
2013-02-20 18:22:00,29.5,13.1,30.17,NNW,338,2.3,2.3,50,0.00,OVC,,0.00,WeatherDisplay:10.37,2013-02-20 23:22:00,
2013-02-20 18:27:00,29.3,12.9,30.17,North,0,3.5,3.5,50,0.00,OVC,,0.00,WeatherDisplay:10.37,2013-02-20 23:27:00,
2013-02-20 18:32:00,29.1,12.8,30.17,WNW,292,5.6,5.6,50,0.00,OVC,,0.00,WeatherDisplay:10.37,2013-02-20 23:32:00,
2013-02-20 18:33:00,22.6,-10.6,30.17,North,0,0.0,0.0,22,0.00,CLR,CLR,0.00,WeatherDisplay:10.37,2013-02-20 23:33:00,
2013-02-20 18:37:00,28.9,12.6,30.17,WNW,292,5.8,5.8,50,0.00,OVC,,0.00,WeatherDisplay:10.37,2013-02-20 23:37:00,
2013-02-20 18:42:00,28.9,12.6,30.17,NNE,22,3.1,3.1,50,0.00,OVC,,0.00,WeatherDisplay:10.37,2013-02-20 23:42:00,
2013-02-20 18:47:00,28.8,12.4,30.17,NE,45,2.3,2.3,50,0.00,OVC,,0.00,WeatherDisplay:10.37,2013-02-20 23:47:00,
2013-02-20 18:48:00,21.9,-11.2,30.17,North,0,0.0,1.0,22,0.00,CLR,CLR,0.00,WeatherDisplay:10.37,2013-02-20 23:48:00,
2013-02-20 18:52:00,28.8,12.4,30.14,NE,45,1.4,1.4,50,0.00,OVC,,0.00,WeatherDisplay:10.37,2013-02-20 23:52:00,
2013-02-20 18:57:00,28.6,12.3,30.14,North,0,2.3,2.3,50,0.00,OVC,,0.00,WeatherDisplay:10.37,2013-02-20 23:57:00,
2013-02-20 19:00:00,36.9,8.3,29.88,North,6,2.0,3.0,30,0.00,CL,CL,0.00,WeatherDisplay:10.37,2013-02-21 00:00:00,
2013-02-20 19:02:00,28.6,12.3,30.14,NW,315,1.2,0.0,50,0.00,OVC,,0.00,WeatherDisplay:10.37,2013-02-21 00:02:00,
2013-02-20 19:03:00,21.4,-11.7,30.17,North,0,0.0,0.0,22,0.00,CLR,CLR,0.00,WeatherDisplay:10.37,2013-02-21 00:03:00,
2013-02-20 19:07:00,28.6,12.3,30.14,NW,315,2.3,2.3,50,0.00,OVC,,0.00,WeatherDisplay:10.37,2013-02-21 00:07:00,
2013-02-20 19:12:00,28.6,12.3,30.14,NW,315,1.2,1.2,50,0.00,OVC,,0.00,WeatherDisplay:10.37,2013-02-21 00:12:00,
2013-02-20 19:17:00,28.6,12.3,30.14,NW,315,1.2,1.6,50,0.00,OVC,,0.00,WeatherDisplay:10.37,2013-02-21 00:17:00,
2013-02-20 19:18:00,21.0,-12.0,30.17,North,0,0.0,0.0,22,0.00,CLR,CLR,0.00,WeatherDisplay:10.37,2013-02-21 00:18:00,
2013-02-20 19:22:00,28.4,12.6,30.14,NNW,338,2.3,2.3,51,0.00,OVC,,0.00,WeatherDisplay:10.37,2013-02-21 00:22:00,
2013-02-20 19:27:00,28.4,12.6,30.14,North,0,1.2,0.0,51,0.00,OVC,,0.00,WeatherDisplay:10.37,2013-02-21 00:27:00,
2013-02-20 19:32:00,28.4,12.6,30.14,NW,315,2.3,2.3,51,0.00,OVC,,0.00,WeatherDisplay:10.37,2013-02-21 00:32:00,
2013-02-20 19:33:00,20.8,-12.1,30.17,North,0,0.0,0.0,22,0.00,CLR,CLR,0.00,WeatherDisplay:10.37,2013-02-21 00:33:00,
2013-02-20 19:37:00,28.4,12.6,30.17,North,0,2.3,0.0,51,0.00,OVC,,0.00,WeatherDisplay:10.37,2013-02-21 00:37:00,
2013-02-20 19:42:00,28.4,12.6,30.17,NW,315,2.3,2.3,51,0.00,OVC,,0.00,WeatherDisplay:10.37,2013-02-21 00:42:00,
2013-02-20 19:47:00,28.4,12.6,30.17,NNW,338,2.3,2.3,51,0.00,OVC,,0.00,WeatherDisplay:10.37,2013-02-21 00:47:00,
2013-02-20 19:48:00,21.2,-11.8,30.17,NNE,22,0.0,2.0,22,0.00,CLR,CLR,0.00,WeatherDisplay:10.37,2013-02-21 00:48:00,
2013-02-20 19:52:00,28.4,12.6,30.14,NW,315,2.4,2.4,51,0.00,OVC,,0.00,WeatherDisplay:10.37,2013-02-21 00:52:00,
2013-02-20 19:57:00,28.2,12.4,30.14,NW,315,3.5,3.5,51,0.00,OVC,,0.00,WeatherDisplay:10.37,2013-02-21 00:57:00,
2013-02-20 20:00:00,36.7,10.2,29.91,North,8,5.0,7.0,33,0.00,CL,CL,0.00,WeatherDisplay:10.37,2013-02-21 01:00:00,
2013-02-20 20:02:00,28.0,12.2,30.14,NW,315,2.9,2.9,51,0.00,OVC,,0.00,WeatherDisplay:10.37,2013-02-21 01:02:00,
2013-02-20 20:03:00,20.5,-12.4,30.17,NNE,22,0.0,0.0,22,0.00,CLR,CLR,0.00,WeatherDisplay:10.37,2013-02-21 01:03:00,
2013-02-20 20:07:00,28.0,12.2,30.17,NW,315,2.3,2.3,51,0.00,OVC,,0.00,WeatherDisplay:10.37,2013-02-21 01:07:00,
2013-02-20 20:12:00,27.9,12.1,30.17,NW,315,1.4,1.4,51,0.00,OVC,,0.00,WeatherDisplay:10.37,2013-02-21 01:12:00,
2013-02-20 20:17:00,27.5,11.7,30.17,NW,315,2.3,2.3,51,0.00,OVC,,0.00,WeatherDisplay:10.37,2013-02-21 01:17:00,
2013-02-20 20:18:00,20.5,-12.4,30.17,NNE,22,0.0,0.0,22,0.00,CLR,CLR,0.00,WeatherDisplay:10.37,2013-02-21 01:18:00,
2013-02-20 20:22:00,27.3,11.5,30.17,North,0,2.3,2.3,51,0.00,OVC,,0.00,WeatherDisplay:10.37,2013-02-21 01:22:00,
2013-02-20 20:27:00,27.1,11.4,30.17,North,0,2.3,0.0,51,0.00,OVC,,0.00,WeatherDisplay:10.37,2013-02-21 01:27:00,
2013-02-20 20:32:00,27.0,11.2,30.17,NNW,338,2.3,2.3,51,0.00,OVC,,0.00,WeatherDisplay:10.37,2013-02-21 01:32:00,
2013-02-20 20:33:00,20.5,-12.4,30.17,NNE,22,1.0,2.0,22,0.00,CLR,CLR,0.00,WeatherDisplay:10.37,2013-02-21 01:33:00,
2013-02-20 20:37:00,27.0,11.2,30.17,North,0,2.3,2.3,51,0.00,OVC,,0.00,WeatherDisplay:10.37,2013-02-21 01:37:00,
2013-02-20 20:42:00,26.8,11.0,30.17,NNE,22,1.2,0.0,51,0.00,OVC,,0.00,WeatherDisplay:10.37,2013-02-21 01:42:00,
2013-02-20 20:47:00,26.6,10.9,30.17,NNE,22,0.0,0.0,51,0.00,OVC,,0.00,WeatherDisplay:10.37,2013-02-21 01:47:00,
2013-02-20 20:48:00,21.2,-11.8,30.20,NE,39,2.0,2.0,22,0.00,CLR,CLR,0.00,WeatherDisplay:10.37,2013-02-21 01:48:00,
2013-02-20 20:52:00,26.6,10.9,30.17,NW,315,1.2,1.2,51,0.00,OVC,,0.00,WeatherDisplay:10.37,2013-02-21 01:52:00,
2013-02-20 20:57:00,26.4,10.7,30.17,NE,45,1.2,1.2,51,0.00,OVC,,0.00,WeatherDisplay:10.37,2013-02-21 01:57:00,
2013-02-20 21:00:00,38.3,11.7,29.91,North,8,6.0,7.0,33,0.00,CL,CL,0.00,WeatherDisplay:10.37,2013-02-21 02:00:00,
2013-02-20 21:02:00,26.4,10.7,30.17,NNE,22,0.0,0.0,51,0.00,OVC,,0.00,WeatherDisplay:10.37,2013-02-21 02:02:00,
2013-02-20 21:03:00,21.4,-11.7,30.20,NE,45,1.0,2.0,22,0.00,CLR,CLR,0.00,WeatherDisplay:10.37,2013-02-21 02:03:00,
2013-02-20 21:07:00,26.2,10.5,30.14,NNW,338,0.0,0.0,51,0.00,OVC,,0.00,WeatherDisplay:10.37,2013-02-21 02:07:00,
2013-02-20 21:12:00,26.1,10.4,30.14,North,0,0.0,0.0,51,0.00,OVC,,0.00,WeatherDisplay:10.37,2013-02-21 02:12:00,
2013-02-20 21:17:00,25.9,10.2,30.14,North,0,0.0,0.0,51,0.00,OVC,,0.00,WeatherDisplay:10.37,2013-02-21 02:17:00,
2013-02-20 21:18:00,21.0,-12.0,30.17,NE,45,1.0,2.0,22,0.00,CLR,CLR,0.00,WeatherDisplay:10.37,2013-02-21 02:18:00,
2013-02-20 21:22:00,25.9,10.2,30.14,North,0,0.0,0.0,51,0.00,OVC,,0.00,WeatherDisplay:10.37,2013-02-21 02:22:00,
2013-02-20 21:27:00,25.7,10.0,30.14,North,0,0.0,0.0,51,0.00,OVC,,0.00,WeatherDisplay:10.37,2013-02-21 02:27:00,
2013-02-20 21:32:00,25.5,9.9,30.14,North,0,0.0,0.0,51,0.00,OVC,,0.00,WeatherDisplay:10.37,2013-02-21 02:32:00,
2013-02-20 21:33:00,20.8,-12.1,30.17,NE,56,1.0,3.0,22,0.00,CLR,CLR,0.00,WeatherDisplay:10.37,2013-02-21 02:33:00,
2013-02-20 21:37:00,25.3,9.7,30.17,North,0,0.0,0.0,51,0.00,OVC,,0.00,WeatherDisplay:10.37,2013-02-21 02:37:00,
2013-02-20 21:42:00,25.3,9.7,30.17,North,0,0.0,0.0,51,0.00,OVC,,0.00,WeatherDisplay:10.37,2013-02-21 02:42:00,
2013-02-20 21:47:00,25.2,9.5,30.17,NNE,22,0.0,0.0,51,0.00,OVC,,0.00,WeatherDisplay:10.37,2013-02-21 02:47:00,
2013-02-20 21:48:00,20.8,-12.1,30.14,NE,43,1.0,2.0,22,0.00,CLR,CLR,0.00,WeatherDisplay:10.37,2013-02-21 02:48:00,
2013-02-20 21:52:00,25.0,9.4,30.17,NNE,22,2.0,0.0,51,0.00,OVC,,0.00,WeatherDisplay:10.37,2013-02-21 02:52:00,
2013-02-20 21:57:00,25.0,9.4,30.17,NE,45,1.2,0.0,51,0.00,OVC,,0.00,WeatherDisplay:10.37,2013-02-21 02:57:00,
2013-02-20 22:00:00,39.7,10.8,29.85,North,8,8.0,10.0,30,0.00,CL,CL,0.00,WeatherDisplay:10.37,2013-02-21 03:00:00,
2013-02-20 22:02:00,25.0,9.4,30.17,NE,45,2.3,2.3,51,0.00,OVC,,0.00,WeatherDisplay:10.37,2013-02-21 03:02:00,
2013-02-20 22:03:00,21.0,-12.0,30.14,NE,45,1.0,2.0,22,0.00,CLR,CLR,0.00,WeatherDisplay:10.37,2013-02-21 03:03:00,
2013-02-20 22:07:00,24.8,10.1,30.14,NNE,22,2.3,2.3,53,0.00,OVC,,0.00,WeatherDisplay:10.37,2013-02-21 03:07:00,
2013-02-20 22:12:00,24.6,9.9,30.14,NNE,22,0.0,0.0,53,0.00,OVC,,0.00,WeatherDisplay:10.37,2013-02-21 03:12:00,
2013-02-20 22:17:00,24.6,9.9,30.14,NE,45,2.3,2.3,53,0.00,OVC,,0.00,WeatherDisplay:10.37,2013-02-21 03:17:00,
2013-02-20 22:18:00,21.0,-12.0,30.17,NE,45,0.0,3.0,22,0.00,CLR,CLR,0.00,WeatherDisplay:10.37,2013-02-21 03:18:00,
2013-02-20 22:22:00,24.8,10.1,30.14,NE,45,1.2,0.0,53,0.00,OVC,,0.00,WeatherDisplay:10.37,2013-02-21 03:22:00,
2013-02-20 22:27:00,24.4,9.7,30.14,East,90,0.0,0.0,53,0.00,OVC,,0.00,WeatherDisplay:10.37,2013-02-21 03:27:00,
2013-02-20 22:32:00,24.3,9.6,30.14,NNE,22,0.0,0.0,53,0.00,OVC,,0.00,WeatherDisplay:10.37,2013-02-21 03:32:00,
2013-02-20 22:33:00,21.0,-12.0,30.14,NE,45,2.0,3.0,22,0.00,CLR,CLR,0.00,WeatherDisplay:10.37,2013-02-21 03:33:00,
2013-02-20 22:37:00,24.1,9.4,30.17,NNE,22,1.2,0.0,53,0.00,OVC,,0.00,WeatherDisplay:10.37,2013-02-21 03:37:00,
2013-02-20 22:42:00,24.1,9.4,30.17,NNE,22,1.2,1.2,53,0.00,OVC,,0.00,WeatherDisplay:10.37,2013-02-21 03:42:00,
2013-02-20 22:47:00,23.7,9.1,30.17,NNE,22,0.0,0.0,53,0.00,OVC,,0.00,WeatherDisplay:10.37,2013-02-21 03:47:00,
2013-02-20 22:48:00,20.7,-12.3,30.17,NE,45,1.0,2.0,22,0.00,CLR,CLR,0.00,WeatherDisplay:10.37,2013-02-21 03:48:00,
2013-02-20 22:52:00,23.4,8.7,30.17,NNE,22,0.0,0.0,53,0.00,OVC,,0.00,WeatherDisplay:10.37,2013-02-21 03:52:00,
2013-02-20 22:57:00,23.4,8.7,30.17,NNE,22,2.3,2.3,53,0.00,OVC,,0.00,WeatherDisplay:10.37,2013-02-21 03:57:00,
2013-02-20 23:00:00,41.2,11.3,29.79,North,8,7.0,12.0,29,0.00,CL,CL,0.00,WeatherDisplay:10.37,2013-02-21 04:00:00,
2013-02-20 23:03:00,23.6,9.0,30.17,NNE,13,0.0,2.0,53,0.00,BKN,BKN,0.00,WeatherDisplay:10.37,2013-02-21 04:03:00,
2013-02-20 23:08:00,23.4,8.7,30.17,North,0,0.0,0.0,53,0.00,BKN,,0.00,WeatherDisplay:10.37,2013-02-21 04:08:00,
2013-02-20 23:13:00,23.4,8.7,30.17,NNE,22,1.6,1.6,53,0.00,BKN,,0.00,WeatherDisplay:10.37,2013-02-21 04:13:00,
2013-02-20 23:18:00,23.4,8.7,30.14,NNE,22,1.4,1.4,53,0.00,BKN,,0.00,WeatherDisplay:10.37,2013-02-21 04:18:00,
2013-02-20 23:24:00,23.2,8.6,30.14,North,0,1.2,0.0,53,0.00,BKN,,0.00,WeatherDisplay:10.37,2013-02-21 04:24:00,
2013-02-20 23:29:00,22.8,8.2,30.14,North,0,0.0,0.0,53,0.00,BKN,,0.00,WeatherDisplay:10.37,2013-02-21 04:29:00,
2013-02-20 23:33:00,20.1,-12.7,30.14,North,1,2.0,3.0,22,0.00,CLR,CLR,0.00,WeatherDisplay:10.37,2013-02-21 04:33:00,
2013-02-20 23:48:00,19.9,-12.9,30.14,ENE,68,1.0,3.0,22,0.00,CLR,CLR,0.00,WeatherDisplay:10.37,2013-02-21 04:48:00,